Weather in San Francisco

United States     37°45′33″N   122°26′49″W
temp.,
°C
wind,
m/s
gust,
m/s
humid.,
%
clouds,
%
prec.,
mm/h
press.,
hPa
HPBL,
m
21 june, mon
mon2123:00+14sw578649 0.1 1012221
02:00+14sw568647 0.1 1012202
05:00+13sw468749 0.1 1012188
08:00+14ssw468138 0.1 1014256
11:00+16sw577226 0.1 1014356
14:00+17sw79710 0.0 1014348
17:00+16sw710761 0.0 1013336
20:00+15sw698447 0.0 1013319
22 june, tue
tue2223:00+15sw478566 0.0 1014304
02:00+15sw258655 0.0 1013205
05:00+14sw128631 0.1 101221
08:00+15sse12812 0.0 1013180
11:00+17sw467434 0.0 1013468
14:00+17wsw687418 0.0 1013445
17:00+16sw69740 0.0 1012410
20:00+15wsw58790 0.0 1012326
23 june, wed
wed2323:00+15sw46830 0.0 1013220
02:00+14sw34840 0.0 1012136
05:00+14sw23850 0.0 101262
08:00+14sw23810 0.0 1013199
11:00+16wsw44750 0.0 1014427
14:00+17wsw67720 0.0 1014408
17:00+16wsw67730 0.0 1014372
20:00+15w56810 0.0 1014312
24 june, thu
thu2423:00+13w45881 0.0 1015180
02:00+13wsw35908 0.0 1016191
05:00+13wsw34918 0.0 1016188
08:00+13wsw448814 0.0 1017267
11:00+15wsw44795 0.0 1018354
14:00+16wsw67745 0.0 1017383
17:00+15wsw79804 0.0 1016381
20:00+14wsw678427 0.0 1016349
25 june, fri
fri2523:00+13wsw468525 0.0 1017230
02:00+13wsw358735 0.0 1016212
05:00+13wsw458787 0.0 1015281
08:00+13wsw448580 0.0 1015320
11:00+15wsw447819 0.0 1014295
14:00+16wsw667614 0.0 1013312
17:00+15wsw798238 0.0 1012310
20:00+14wsw798999 0.0 1013397